Theta_e
333 333 336 337 341 340 339 341 343 344 343 342 343 340 342 343 343 344 345 345 344 343 343 342 339 343 340 342 343 340 338 337 334 335 335 336 333 332 337 336 337 337 337 336 336 329 326 323 327 337 339 341 341 340 340 338 341 341 341 341 343 341 340
336 336 340 340 339 341 340 342 342 342 343 344 342 343 342 341 342 344 343 343 343 343 344 343 341 342 341 338 337 337 336 336 337 337 337 336 335 333 334 334 336 335 336 335 335 333 329 323 323 327 330 339 339 341 340 341 339 341 344 344 344 343 343
335 337 340 338 338 340 340 341 342 343 342 343 344 342 341 340 341 341 342 341 342 341 343 343 342 342 339 339 337 337 337 334 335 337 337 337 336 337 336 336 334 334 333 332 332 329 330 330 323 326 328 330 328 333 337 339 341 341 345 342 343 343 344
335 337 336 335 337 339 338 339 341 342 344 343 343 343 342 340 340 341 340 340 343 344 344 342 343 341 337 339 339 338 337 336 336 336 334 335 336 338 338 337 334 334 332 328 327 329 328 326 326 327 329 330 330 329 334 337 339 338 339 342 341 342 343
337 336 333 333 335 337 338 337 340 342 340 342 344 344 345 343 344 342 342 342 341 342 341 343 344 338 336 338 340 338 336 336 337 336 335 335 334 336 338 338 338 337 336 332 330 331 330 328 328 327 327 331 331 328 335 339 340 336 338 339 341 342 343
337 335 337 336 337 337 338 338 338 338 339 339 340 339 340 341 342 344 344 341 341 343 343 341 344 343 341 341 339 337 337 337 336 335 333 332 334 335 337 338 338 337 334 333 337 335 336 333 330 327 327 329 325 328 330 336 334 334 335 337 340 340 340
338 337 337 338 339 338 339 338 338 338 338 339 339 339 340 340 341 342 344 343 344 344 343 343 342 344 342 341 339 339 337 337 336 335 334 334 336 338 339 338 337 337 337 337 339 339 337 335 333 329 329 331 328 328 331 332 333 329 333 339 337 336 338
338 338 338 339 338 338 339 338 340 341 341 341 341 342 342 341 341 341 341 343 345 346 345 343 343 344 343 341 340 340 340 337 335 335 332 334 334 336 337 336 336 338 338 340 340 339 340 337 332 330 330 326 327 327 326 328 327 329 330 332 335 336 337
340 340 339 339 341 341 341 341 341 343 343 344 344 344 343 342 342 341 341 341 342 343 344 343 343 341 341 340 341 342 340 341 338 335 334 334 335 337 336 337 336 336 339 341 341 340 341 338 336 335 334 331 327 321 331 327 328 327 331 335 333 338 338
341 340 339 340 341 342 342 342 342 343 344 345 345 345 345 343 343 342 340 340 341 343 344 343 343 343 342 343 339 339 337 340 340 335 336 335 337 338 337 338 338 340 340 342 341 342 342 343 340 340 338 337 333 327 324 322 324 326 324 332 333 339 338
341 341 341 341 342 342 342 343 342 342 342 344 345 343 343 343 344 343 342 342 343 344 344 343 342 342 343 341 341 339 340 341 339 338 338 338 338 341 341 340 340 339 337 336 341 342 341 341 339 341 339 341 338 332 331 324 326 332 331 334 330 334 337
342 342 342 342 342 340 340 341 342 342 343 343 343 344 344 343 344 343 343 342 343 343 343 344 343 342 342 340 340 340 342 343 340 337 336 335 340 340 339 338 339 339 341 341 340 339 340 342 341 341 341 340 342 338 332 329 322 329 335 331 332 332 333
341 341 342 341 341 340 340 340 340 341 342 343 343 344 344 343 343 342 342 342 342 342 342 343 343 343 343 342 341 341 341 341 341 337 338 340 340 340 337 336 338 339 341 341 341 340 342 342 342 340 340 339 341 341 337 333 327 329 336 333 333 333 334
341 342 342 342 341 340 340 340 340 341 342 341 343 344 343 342 342 343 342 341 340 341 342 342 343 343 342 341 341 341 340 339 338 339 340 339 340 340 339 336 338 340 341 340 341 342 341 340 340 340 339 339 338 337 334 332 327 328 332 337 340 336 333
342 342 343 342 341 340 340 340 340 341 341 342 342 342 342 343 342 343 341 340 341 341 341 341 343 342 341 340 340 342 341 339 338 339 340 339 339 340 340 337 335 334 334 334 337 338 338 339 340 338 335 337 336 338 341 333 334 328 329 332 336 334 333
342 343 343 342 340 340 340 341 341 340 340 341 342 342 342 343 343 341 340 341 341 339 340 341 342 342 341 340 339 340 341 341 340 339 338 339 339 334 328 329 328 330 333 331 332 341 340 340 338 336 336 337 337 340 339 339 332 329 327 330 336 329 330
342 342 342 341 340 340 341 341 341 340 340 341 341 342 343 342 340 340 339 340 339 340 341 342 342 341 341 340 339 339 340 340 339 338 337 337 334 330 330 330 331 331 329 329 328 331 339 339 340 340 339 338 341 338 342 341 338 331 330 328 330 328 331
342 342 341 341 340 341 341 340 340 339 340 339 339 342 343 343 340 338 339 340 339 339 340 340 340 341 342 342 340 340 340 339 339 336 336 336 335 332 331 330 331 333 330 329 328 330 337 337 337 339 337 336 336 337 339 340 338 336 331 328 331 330 331
342 341 341 341 340 341 341 340 339 340 339 337 339 342 342 342 341 338 338 340 339 338 339 340 339 339 339 341 341 341 339 339 338 337 337 336 333 332 331 331 332 332 330 328 329 332 335 336 337 336 335 337 337 337 337 336 336 334 332 331 329 328 328
342 342 342 341 341 341 341 341 340 339 338 338 338 340 341 342 342 341 338 337 338 340 339 340 339 340 338 338 338 338 339 339 338 337 334 334 333 332 330 330 330 331 331 330 331 331 333 335 338 338 340 337 338 337 338 336 335 334 331 330 329 328 325
342 343 343 342 342 341 341 342 340 338 339 338 340 340 340 341 342 341 338 338 340 339 338 339 339 340 339 338 337 337 337 338 338 336 335 334 334 332 330 330 331 330 331 331 332 333 335 334 338 336 338 336 336 336 334 334 333 331 330 329 326 324 325
342 342 342 342 341 341 341 342 340 339 339 340 342 342 342 342 341 340 339 341 341 341 341 340 342 340 340 339 340 336 336 339 337 333 334 334 333 331 330 331 331 332 333 335 336 335 336 335 336 336 334 334 333 329 328 330 331 331 330 328 326 325 320
341 341 341 341 341 341 341 341 341 339 339 341 343 343 342 342 341 340 339 339 340 340 340 341 338 331 332 339 340 338 339 337 334 334 335 334 333 332 331 331 332 336 337 337 336 330 323 325 337 339 336 335 333 329 329 330 329 330 328 325 323 323 320
332 337 340 341 341 342 341 341 341 340 340 342 342 342 342 341 340 340 338 338 339 341 342 340 325 313 314 322 339 340 339 336 337 336 335 332 330 331 333 333 333 336 337 338 335 324 319 318 321 324 327 332 338 335 331 330 329 329 327 325 325 322 320
331 330 333 340 342 341 341 341 341 341 341 342 342 343 341 341 341 341 340 340 339 341 343 334 309 309 311 312 326 340 339 339 337 337 336 334 332 330 331 334 336 336 335 334 334 332 325 318 312 312 313 314 317 321 325 332 330 328 326 324 323 323 321
330 331 332 333 340 341 341 341 341 341 341 341 342 341 341 341 340 340 341 340 339 339 340 320 304 307 308 307 313 331 339 338 337 337 336 333 331 331 332 333 336 337 336 338 337 336 336 328 318 317 317 315 311 309 304 306 313 331 329 327 324 322 321
330 330 330 333 335 339 339 339 340 341 341 341 340 340 340 340 340 340 340 339 336 335 338 321 306 307 305 304 303 315 339 339 338 337 336 334 333 333 332 332 334 335 336 336 335 335 336 336 330 327 327 327 326 322 308 304 304 309 321 328 326 322 326
329 330 330 333 335 337 339 339 339 339 340 340 339 338 338 338 338 338 339 339 339 338 339 313 306 305 303 303 301 311 337 339 338 337 337 337 337 337 336 336 335 336 336 335 336 336 336 335 334 331 330 329 330 325 323 322 322 323 324 326 324 324 328
327 329 331 331 333 335 337 338 337 339 339 339 339 339 339 340 338 339 340 339 337 336 342 305 303 304 303 304 301 327 336 337 337 337 337 338 339 338 338 337 336 336 336 336 333 318 327 335 334 330 328 329 329 331 330 332 320 319 331 329 325 328 321
328 328 330 333 333 334 336 338 338 340 338 337 338 338 339 339 339 339 338 339 338 339 342 307 302 304 304 301 309 332 335 334 334 334 335 337 337 337 337 337 337 336 336 335 324 309 308 320 332 332 330 329 330 330 330 326 303 297 295 296 297 297 294
329 329 329 330 332 333 336 338 338 339 337 336 337 339 340 339 339 338 338 339 340 339 341 316 301 303 303 301 320 332 333 332 331 330 331 336 337 337 338 341 339 336 335 335 312 307 306 317 331 332 331 329 328 328 328 323 317 310 295 294 293 294 294
328 330 329 327 326 328 333 335 338 338 338 337 337 339 338 337 337 337 337 339 338 339 340 323 300 303 301 301 318 333 332 329 329 329 329 334 335 336 336 337 337 333 337 329 304 303 303 317 330 332 331 330 328 327 327 324 319 316 316 316 314 313 310
327 327 327 327 326 327 328 330 334 336 338 337 337 337 335 336 336 337 338 339 340 340 341 329 307 301 301 301 310 333 332 329 327 328 329 330 334 334 335 336 329 312 313 308 302 301 302 304 328 332 331 328 326 325 329 327 321 319 318 318 318 319 319
325 326 326 327 327 327 328 328 332 335 336 336 337 337 337 337 337 338 339 340 340 340 341 335 313 299 300 301 304 318 332 331 329 328 329 329 331 332 333 334 334 317 305 305 302 302 303 301 312 332 332 329 330 332 325 327 324 325 321 319 319 320 319
327 326 327 327 326 326 327 328 329 335 336 334 335 335 336 335 336 337 338 338 338 338 340 334 320 300 300 299 302 306 329 332 330 329 329 330 330 330 332 333 332 319 304 304 302 301 301 302 302 327 331 308 303 308 328 329 327 324 324 321 320 318 318
326 328 326 326 324 323 324 324 325 327 332 335 334 335 335 336 335 336 336 336 337 338 338 333 313 307 299 299 299 302 307 323 312 339 336 332 332 333 331 331 332 318 302 302 301 300 301 301 304 320 296 296 299 300 315 327 326 325 323 322 321 319 317
326 326 327 326 324 324 323 323 323 324 326 330 334 334 335 336 335 335 335 334 336 337 338 336 313 307 304 298 299 300 301 302 302 315 326 336 336 332 330 332 329 308 302 302 300 299 300 301 310 306 298 298 297 306 323 324 323 324 320 320 319 319 318
Wind_Speed
8 8 9 7 5 4 5 7 5 6 6 6 6 6 6 5 5 5 4 5 5 4 4 5 4 2 2 2 4 3 5 2 1 2 2 3 3 1 2 2 2 1 2 1 1 1 1 2 1 0 2 3 2 2 6 6 6 5 4 7 5 4 4
8 6 5 5 5 6 6 6 5 5 4 4 5 4 4 5 5 4 5 5 5 4 4 4 4 4 3 5 5 5 5 1 3 2 3 4 3 4 3 2 3 3 2 2 2 0 1 1 4 3 2 2 3 4 5 5 5 5 4 4 3 4 4
8 7 6 5 6 5 5 5 5 4 5 4 3 3 4 5 5 5 4 5 5 5 4 3 5 5 3 5 6 6 6 9 5 5 3 1 2 2 3 3 3 2 3 2 4 3 2 3 3 2 3 2 2 1 1 2 4 6 4 4 4 3 3
10 8 6 6 5 5 5 5 4 4 3 3 4 5 4 5 5 4 5 4 3 2 5 4 6 5 3 4 6 7 6 6 6 5 4 2 2 3 5 4 4 5 5 4 5 3 3 2 2 5 2 1 0 3 2 3 1 4 5 5 4 2 4
8 8 9 8 7 7 6 5 5 4 4 3 2 2 2 3 2 4 4 3 3 3 4 4 6 6 5 5 5 6 7 6 5 5 4 4 4 4 4 4 3 4 3 2 3 4 4 2 1 3 1 1 1 4 4 1 4 6 2 1 2 1 4
8 8 7 7 7 6 6 5 5 5 4 4 4 4 4 5 3 2 2 4 5 5 4 4 6 8 9 7 6 6 5 7 6 5 4 4 5 5 5 4 4 4 4 4 3 4 3 2 3 1 2 2 3 2 4 3 3 3 8 3 2 1 2
8 10 8 7 7 6 6 6 6 6 5 6 5 6 5 5 4 4 3 4 4 4 4 4 5 7 7 7 6 6 6 5 4 5 4 6 5 5 2 4 4 5 5 5 5 4 4 4 2 2 2 1 3 4 3 3 2 6 3 2 2 3 3
8 8 8 8 8 8 7 7 7 6 6 6 7 6 7 7 6 5 4 3 2 2 2 4 4 6 6 5 5 5 6 6 6 5 5 5 4 5 5 4 4 5 5 4 4 4 4 4 4 2 4 3 4 4 3 5 4 6 6 7 11 8 6
8 8 7 7 7 8 7 7 6 6 6 5 5 5 7 7 6 5 4 3 3 4 4 4 5 6 6 5 4 4 5 5 6 6 5 5 6 7 6 6 5 6 6 5 4 5 4 5 5 6 6 6 1 2 0 2 1 1 7 3 3 0 4
9 9 9 9 8 8 7 6 5 5 6 5 5 3 3 6 6 6 6 6 6 5 4 5 4 6 7 6 6 5 5 5 6 7 6 7 7 8 7 8 8 5 3 3 3 4 4 3 5 5 5 3 3 1 0 2 2 1 3 6 2 1 2
9 9 8 8 8 7 7 6 6 5 5 5 5 5 5 5 5 5 4 5 4 4 4 4 4 4 5 6 5 5 5 6 6 7 7 5 7 7 6 6 6 4 8 8 5 4 3 3 4 3 2 1 1 1 1 1 1 1 1 2 3 2 1
10 9 8 8 8 8 8 7 7 7 6 5 5 5 6 5 4 4 4 3 3 4 4 3 4 4 4 5 5 6 6 5 6 7 7 9 7 5 4 5 4 4 3 3 3 3 3 3 2 2 2 2 1 2 1 2 1 2 1 3 3 6 4
11 10 9 9 8 8 7 7 7 7 7 6 6 5 4 5 6 5 5 4 4 4 5 5 4 4 4 4 5 5 5 5 4 5 6 6 5 5 7 7 6 5 4 3 4 3 3 2 2 2 1 1 0 1 1 1 0 1 2 3 2 1 6
12 10 10 10 9 9 8 8 7 7 6 6 6 6 7 7 6 6 5 5 6 5 5 5 4 4 4 5 5 5 5 6 7 5 3 3 4 4 4 6 4 5 5 5 3 3 3 3 2 2 2 2 2 3 3 1 1 2 1 1 2 2 3
11 10 11 11 10 9 9 8 7 7 7 7 6 7 7 6 6 6 6 7 6 6 6 6 6 5 5 5 5 4 4 4 4 3 2 2 2 3 1 1 4 8 9 10 6 2 3 3 2 3 4 3 3 2 1 0 1 0 2 1 4 0 4
12 12 12 11 11 10 9 8 8 8 7 6 7 7 6 6 7 6 6 6 6 6 5 5 5 6 5 5 5 4 3 2 2 1 1 0 1 8 10 7 8 7 6 5 9 4 1 0 2 4 2 2 1 2 2 1 1 0 1 1 2 0 4
13 12 12 11 12 11 10 9 8 9 8 6 7 6 6 6 6 7 6 6 6 4 4 3 4 5 6 6 6 6 5 4 3 2 2 0 5 6 6 6 6 6 7 4 1 10 6 3 2 1 1 1 0 1 1 1 2 0 1 2 2 2 2
13 13 13 11 12 12 11 10 9 10 8 8 7 6 6 6 6 7 7 6 5 5 5 5 5 5 4 3 4 3 4 4 3 3 4 4 6 5 4 4 3 2 3 5 5 6 6 3 1 1 1 2 1 1 2 1 1 1 0 0 1 2 1
13 14 13 12 12 12 11 10 10 8 9 9 8 7 7 6 7 8 7 7 7 7 6 5 6 6 5 4 3 2 2 3 3 3 4 3 5 6 4 3 5 7 5 4 3 4 4 3 2 1 3 0 1 1 3 1 1 0 0 1 1 1 1
13 13 13 12 11 11 11 11 10 10 9 9 8 8 8 8 8 8 8 7 8 6 6 6 6 5 6 5 4 4 3 3 4 4 4 3 5 6 6 5 5 4 5 6 5 3 4 3 3 2 1 0 0 4 2 1 0 2 1 1 1 0 2
13 13 12 12 12 11 11 11 11 10 9 10 9 9 9 9 8 8 8 7 7 7 7 7 7 6 6 6 6 5 4 3 3 2 2 3 2 3 4 5 5 6 6 5 4 3 2 3 3 3 2 2 1 1 2 1 1 0 2 2 1 1 0
12 13 12 12 12 12 11 11 11 10 9 9 8 9 9 9 9 9 8 6 6 5 6 5 5 6 6 6 5 5 5 4 5 6 5 5 5 5 5 6 6 5 5 8 6 3 4 4 2 2 3 3 1 2 2 1 1 2 2 1 2 2 3
11 13 12 13 13 12 12 11 10 10 10 10 8 9 9 9 9 8 8 7 6 6 6 5 7 10 8 6 7 7 6 5 5 6 6 5 5 5 5 5 5 11 10 9 8 5 3 0 2 5 5 4 3 3 3 2 2 2 1 1 4 2 3
3 6 11 13 12 12 12 10 10 11 10 9 9 9 8 9 8 8 9 8 7 6 4 4 9 15 13 12 6 5 6 7 7 8 6 7 6 5 3 4 5 8 8 9 7 8 7 5 6 8 8 5 3 3 3 3 2 2 2 3 2 2 3
7 7 10 12 12 13 11 11 10 11 9 10 10 8 9 8 8 8 7 6 6 6 5 9 16 15 15 14 11 6 5 5 6 5 6 7 6 5 5 5 5 4 6 6 6 6 8 8 8 9 8 7 6 5 3 3 3 2 2 2 2 2 2
7 7 9 14 12 11 12 11 11 11 10 10 8 9 9 9 7 7 6 7 6 4 5 10 14 15 15 15 15 10 5 5 6 6 5 6 6 6 6 5 4 4 6 12 8 5 6 7 8 8 8 8 6 9 9 7 4 2 1 0 1 1 1
8 8 9 11 11 11 12 12 11 10 9 9 10 9 9 9 8 7 7 6 7 5 6 11 14 15 15 15 14 10 6 6 6 5 6 6 6 6 6 4 5 5 4 6 5 5 4 5 7 6 5 5 4 5 6 8 7 5 2 2 1 0 1
11 10 10 13 13 12 12 11 11 10 9 10 10 10 10 10 8 8 8 8 8 8 7 13 16 15 15 16 16 11 6 5 6 6 5 6 6 6 7 8 6 5 5 5 6 7 6 5 5 6 5 5 5 6 5 4 4 3 3 1 1 1 2
10 11 12 14 13 12 12 12 12 10 9 8 8 8 8 8 9 9 9 9 8 8 7 14 16 17 17 16 15 8 7 6 5 5 7 7 6 5 5 5 5 4 4 5 8 11 7 4 6 6 6 5 5 5 6 6 7 5 3 2 1 2 3
8 10 14 13 12 13 12 12 10 9 10 10 9 9 9 9 9 9 9 9 10 10 7 12 16 17 16 16 11 6 7 7 6 6 4 5 6 6 6 6 6 5 4 5 8 11 11 5 3 6 5 5 5 5 5 5 9 10 9 10 11 10 9
3 4 7 11 8 8 8 9 10 8 10 10 10 10 10 9 9 9 10 10 11 9 8 13 18 17 17 17 14 8 7 7 7 7 6 4 5 5 6 10 8 6 5 5 10 12 11 6 3 5 5 6 5 4 3 6 4 4 8 10 9 8 7
6 4 3 1 5 10 11 9 10 10 10 10 10 10 10 9 8 8 8 9 12 11 8 10 17 17 17 18 13 8 8 7 7 7 6 6 6 5 5 8 11 9 7 7 13 11 11 8 5 4 5 5 5 4 4 7 7 5 3 3 2 3 1
10 7 6 7 8 8 8 12 9 10 10 10 9 9 9 9 9 8 8 9 8 10 8 8 13 16 17 18 17 10 8 7 8 8 7 7 7 6 6 6 9 13 10 11 12 12 12 12 8 5 5 6 5 5 5 7 8 7 6 6 5 5 4
9 7 8 11 11 8 5 9 12 9 10 10 9 9 10 9 9 9 8 8 8 9 8 8 11 16 14 16 16 13 9 9 7 7 7 7 6 6 7 6 6 12 14 13 12 13 13 15 13 6 5 5 4 4 7 5 9 11 6 6 4 5 6
11 11 7 4 6 6 6 4 10 10 9 9 10 11 11 10 9 9 8 8 8 8 9 12 10 15 18 16 16 16 9 8 7 6 6 7 7 6 6 7 7 10 15 15 14 14 15 16 16 7 4 7 8 11 8 6 7 7 5 5 5 5 5
10 9 10 9 5 5 6 7 3 12 10 9 11 10 11 9 9 9 8 8 8 8 9 9 16 14 16 17 17 17 13 6 2 4 4 5 6 4 5 6 5 11 16 15 13 14 14 15 10 6 9 10 9 8 4 4 7 7 6 6 6 7 7
9 8 9 8 9 8 8 9 9 6 10 9 7 9 8 9 9 9 9 9 8 7 8 7 12 17 15 18 17 17 17 10 7 4 3 1 4 7 6 5 6 12 15 15 13 13 12 11 9 11 9 10 8 4 3 3 5 7 7 6 7 7 7
Wind_Direction
185 184 195 183 189 193 197 192 183 199 208 187 184 203 191 191 187 182 191 171 175 178 180 144 157 150 126 162 108 78 42 36 341 293 171 186 167 151 205 216 228 177 195 263 281 218 234 305 312 243 177 169 170 133 148 181 207 194 164 214 201 184 195
184 181 179 176 185 184 206 180 194 194 205 209 191 201 222 202 175 193 189 187 175 180 179 140 164 165 151 81 89 108 135 44 229 228 237 178 174 164 160 239 206 172 156 204 229 141 190 169 272 268 256 132 160 176 190 182 185 208 218 238 200 184 172
171 181 174 179 185 183 195 183 194 190 193 195 202 203 211 219 210 187 189 200 187 183 155 174 120 98 132 141 139 149 164 165 209 206 192 179 172 188 193 192 166 157 173 180 211 181 230 237 236 241 222 221 256 287 193 215 187 169 191 209 218 188 119
176 168 162 185 189 178 192 189 197 183 208 206 188 198 211 224 203 196 198 192 175 170 152 169 138 163 140 135 164 164 179 173 184 162 154 167 233 207 212 194 195 190 189 186 192 179 191 209 213 269 304 298 337 301 269 224 213 185 169 200 219 187 108
178 159 176 185 183 184 189 183 189 179 186 224 221 179 235 265 239 200 188 177 178 183 185 165 141 153 170 171 171 167 163 179 186 169 149 176 199 223 217 202 211 207 213 205 183 176 184 228 189 276 273 4 277 224 249 208 220 194 167 185 197 149 134
172 161 183 181 172 180 184 183 178 193 188 194 197 206 212 233 252 259 181 172 195 187 182 177 153 159 165 171 172 174 166 170 179 168 160 188 204 212 203 204 211 212 217 207 210 175 185 186 189 277 271 199 243 259 233 187 224 145 95 278 285 245 167
180 172 180 182 174 185 178 187 187 189 194 200 193 206 205 214 224 236 218 204 193 175 176 189 178 161 156 164 173 167 170 172 168 178 173 198 201 230 216 209 206 221 231 200 190 176 192 193 175 209 280 265 244 231 209 150 194 81 221 167 266 243 228
181 176 176 178 177 185 185 189 190 189 194 195 200 192 195 203 209 210 215 208 190 189 184 177 184 149 145 160 179 171 162 171 186 160 190 219 190 212 218 217 221 236 243 200 177 198 198 170 144 186 236 255 252 219 188 164 207 152 154 155 206 197 189
182 179 181 179 177 185 188 190 187 189 196 192 196 188 188 198 202 199 203 197 196 199 199 192 182 154 157 175 165 156 169 176 161 195 202 186 211 214 213 215 222 229 232 199 195 198 210 158 176 200 209 239 275 275 79 125 84 184 123 128 94 30 108
185 184 186 183 181 181 185 187 196 190 186 187 183 188 199 203 204 198 186 192 193 192 195 198 193 169 167 165 154 162 180 190 153 181 219 205 210 200 203 208 221 206 220 277 204 199 190 185 203 210 230 210 154 178 278 150 146 192 158 145 139 3 71
188 188 189 187 183 180 181 184 193 202 205 187 178 178 197 212 206 213 197 190 183 183 191 198 201 191 168 161 167 176 193 197 166 171 196 216 217 206 199 206 231 190 176 214 204 200 199 200 220 224 239 354 255 197 227 135 146 144 105 34 90 152 84
185 189 190 191 186 189 182 184 191 200 200 200 201 189 193 203 200 203 211 196 183 186 190 202 202 204 191 175 176 183 192 195 184 179 174 212 217 175 214 235 229 227 211 188 199 196 189 207 203 256 227 206 268 32 19 359 141 322 23 112 103 119 177
186 188 189 190 188 191 193 190 194 198 198 197 197 197 192 198 199 195 195 201 200 193 190 196 199 198 192 188 179 191 180 200 200 224 191 190 195 186 201 208 210 200 194 193 188 181 192 182 207 252 263 185 184 109 56 336 59 154 12 94 62 111 116
186 187 187 190 189 191 198 199 199 195 197 202 190 187 195 206 200 194 195 196 209 201 193 193 181 189 197 196 189 194 191 194 210 205 201 199 199 203 197 221 217 204 191 188 172 177 175 188 193 205 255 231 226 154 185 222 280 94 38 56 141 68 89
188 187 187 188 192 193 193 197 196 198 200 199 196 199 203 195 198 191 198 206 204 212 200 200 179 184 202 199 197 192 199 199 200 209 181 243 213 210 239 345 353 358 10 350 320 178 184 194 199 200 213 223 211 164 154 55 22 85 144 215 66 216 90
189 191 188 189 193 193 196 193 194 201 202 197 193 203 206 197 197 201 205 201 203 209 206 199 183 180 199 196 194 191 182 192 189 155 165 219 348 39 39 41 29 0 15 325 286 287 328 344 185 234 241 206 198 128 142 125 67 356 26 118 158 108 92
192 191 191 191 192 193 193 196 195 199 202 198 194 199 199 201 196 205 203 206 202 195 198 180 184 193 199 190 191 198 173 184 171 128 117 126 100 127 160 135 176 172 168 150 344 299 270 192 231 162 232 288 193 123 133 103 146 94 66 1 67 49 89
193 193 195 192 193 191 194 195 197 199 197 199 198 193 194 201 210 206 202 201 198 201 207 197 187 194 197 174 181 184 174 174 157 155 173 176 144 144 160 168 179 150 170 161 189 234 247 231 128 279 239 240 119 11 354 144 146 140 114 191 92 91 118
196 197 196 195 194 193 193 194 197 198 195 202 197 197 195 194 205 216 203 200 207 207 204 199 188 189 184 144 158 154 162 168 181 181 173 147 125 143 170 166 159 173 175 170 216 258 271 221 199 219 252 85 71 124 182 175 107 63 71 43 80 66 231
197 199 197 197 195 193 194 196 197 197 198 198 197 197 199 198 198 211 214 205 206 188 198 191 196 178 171 179 171 177 183 194 175 180 169 160 163 168 169 164 181 183 187 185 193 229 277 275 186 206 161 228 76 177 178 85 70 94 74 15 0 245 263
199 199 197 197 196 194 194 194 198 198 192 198 200 200 201 201 200 202 217 204 196 201 203 196 194 185 183 190 186 179 184 202 158 99 140 141 169 187 179 191 193 202 194 177 192 215 267 278 197 172 124 92 246 55 78 100 122 39 99 83 248 281 318
196 197 197 198 195 195 194 193 195 194 192 198 198 201 202 199 198 201 205 196 188 199 203 198 166 177 180 180 168 171 192 183 137 172 188 169 176 193 188 195 196 203 208 200 187 198 246 262 264 162 141 154 139 123 95 33 93 92 94 136 234 198 258
197 195 199 196 197 195 192 192 191 194 197 196 195 198 203 201 196 195 200 199 185 193 202 203 186 178 184 176 178 182 181 154 171 209 182 167 173 195 203 204 208 205 206 208 202 198 217 120 190 139 150 154 173 155 162 154 127 127 137 213 247 216 218
2 273 209 198 197 195 194 192 192 195 194 193 194 196 198 195 192 193 198 194 189 192 179 167 173 187 187 182 184 182 171 178 193 198 174 173 192 211 216 211 216 210 203 209 203 175 166 159 138 135 143 145 155 163 163 154 131 142 166 242 233 220 246
180 205 267 231 198 196 193 191 191 191 188 190 192 189 193 197 192 187 189 182 184 187 180 157 173 181 178 177 185 181 175 173 178 192 184 174 173 182 206 221 203 185 187 197 197 178 176 164 151 134 129 129 131 113 123 151 157 171 204 241 284 278 303
188 201 220 247 218 192 192 187 186 188 190 188 183 186 190 192 182 179 177 174 173 171 185 164 169 175 178 180 179 176 180 173 175 195 182 165 173 190 204 209 201 182 185 192 199 188 179 166 160 155 139 128 136 139 128 109 97 104 129 103 223 267 23
272 214 221 234 232 206 188 187 186 188 187 184 187 187 182 189 188 177 168 164 183 196 216 181 184 181 181 183 181 182 189 174 180 190 186 190 194 198 196 196 203 199 181 176 192 198 200 183 164 164 166 166 163 151 138 140 137 126 130 115 6 345 33
240 243 231 230 217 203 190 187 185 184 182 182 186 187 188 189 193 191 178 178 175 190 202 175 186 186 181 178 179 181 197 190 171 185 197 211 200 201 195 198 203 190 186 178 188 195 192 198 169 176 178 179 176 169 169 167 159 154 162 164 260 330 41
223 242 244 235 223 206 195 188 186 179 174 176 178 180 189 191 190 190 183 178 183 199 189 177 182 181 179 179 168 180 191 200 191 185 185 192 192 190 191 196 201 197 190 189 186 192 203 196 169 171 178 180 188 178 176 174 157 113 114 172 222 95 94
244 245 249 249 227 209 196 186 179 170 175 175 178 183 190 193 194 193 187 184 189 192 175 183 179 179 179 171 165 184 189 194 197 199 195 190 194 184 197 197 189 195 187 198 181 186 215 216 201 169 175 185 183 182 164 135 106 97 94 87 89 101 116
279 287 296 291 293 277 227 186 185 174 176 175 182 188 190 192 192 194 191 191 187 187 183 177 182 178 172 171 174 179 183 189 194 195 203 186 179 186 192 192 195 192 190 195 177 191 210 187 220 186 187 173 183 177 159 130 125 63 77 88 91 97 100
250 205 191 239 316 303 277 227 189 183 178 181 185 188 190 191 192 194 196 193 187 193 189 172 180 177 176 177 176 181 179 189 191 195 194 174 183 182 193 194 200 197 193 178 172 192 202 196 215 199 168 175 177 181 177 148 151 146 149 144 133 136 103
215 212 188 165 203 225 281 286 228 182 181 181 184 186 184 191 191 193 190 189 187 193 179 152 181 182 179 179 182 175 187 187 196 194 192 189 171 187 189 190 198 201 199 170 179 190 199 195 208 206 164 177 181 195 178 153 162 164 179 188 183 188 188
209 223 217 197 190 182 182 261 262 206 183 184 182 181 183 189 188 189 185 182 182 186 180 157 171 179 183 185 190 184 188 198 195 191 187 196 188 182 185 188 187 198 201 194 194 200 201 201 209 203 188 195 186 172 140 143 162 170 177 186 188 182 196
184 193 210 246 190 166 171 207 282 253 198 183 184 184 188 189 189 181 175 173 186 184 182 162 158 180 180 188 195 199 194 199 202 191 186 193 196 197 180 180 189 188 196 199 202 200 201 197 205 205 184 136 129 146 159 164 159 171 175 179 187 196 193
184 193 190 185 215 209 177 154 200 294 265 199 190 187 186 190 187 184 177 178 183 185 186 167 162 172 185 185 194 203 208 205 119 212 196 186 180 141 138 167 187 180 192 196 197 200 197 199 191 197 149 135 131 131 152 167 158 167 181 183 190 200 201
198 205 189 177 192 222 202 175 160 217 293 282 224 187 186 187 186 186 185 183 182 184 182 166 170 170 178 187 191 200 209 209 64 46 35 70 142 146 153 163 182 192 189 192 190 194 192 185 195 196 152 143 132 122 161 189 171 171 183 191 198 205 209